Location: Brno
(49.2000°N, 16.6330°E)
Time: 13:56:58
(UTC+01:00)

ISS - Visible Passes

Search period start: 11 February 2026 00:00
Search period end: 21 February 2026 00:00
Orbit: 413 x 429 km, 51.6° (Epoch: 10 February)

Date Brightness Start Highest point End Pass type
(mag) Time Alt. Az. Time Alt. Az. Time Alt. Az.
12 Feb -1.3 06:20:58 10° SSW 06:23:40 23° SE 06:26:21 10° E visible
13 Feb -0.9 05:34:43 10° S 05:36:48 16° SE 05:38:53 10° E visible
14 Feb -0.6 04:49:34 10° SE 04:49:58 10° SE 04:50:21 10° SE visible
14 Feb -2.9 06:22:54 10° SW 06:26:09 49° SSE 06:29:24 10° ENE visible
15 Feb -2.3 05:36:20 11° SSW 05:39:10 34° SSE 05:42:14 10° E visible
16 Feb -1.9 04:51:30 22° SSE 04:52:12 23° SE 04:54:56 10° E visible
16 Feb -3.8 06:25:23 10° WSW 06:28:44 87° NNW 06:32:06 10° ENE visible
17 Feb -0.7 04:06:31 13° ESE 04:06:31 13° ESE 04:07:24 10° E visible
17 Feb -3.6 05:39:31 21° WSW 05:41:37 71° SSE 05:44:58 10° ENE visible
18 Feb -3.2 04:54:25 50° SSE 04:54:32 50° SSE 04:57:47 10° ENE visible
19 Feb -1.1 04:09:12 20° E 04:09:12 20° E 04:10:33 10° E visible
19 Feb -3.7 05:42:11 22° W 05:44:09 70° NNW 05:47:30 10° ENE visible
20 Feb -3.9 04:56:54 85° WNW 04:56:57 86° NNW 05:00:18 10° ENE visible
